Preview of NWS' New Version of Forecast
This preview is not operational and should not be used for support decisions.

Regional Weather Roundup (RWR)

Issued by National Weather Service (NWS)

                            
000
ASUS43 KDMX 200601
RWRIA 

WEATHER ROUNDUP FOR IOWA
NATIONAL WEATHER SERVICE DES MOINES IA
100 AM CDT SAT APR 20 2019

NOTE: "FAIR" INDICATES FEW OR NO CLOUDS BELOW 12,000 FEET WITH NO
SIGNIFICANT WEATHER AND/OR OBSTRUCTIONS TO VISIBILITY.

* - THESE STATIONS ARE NOT NWS STATIONS...THUS NOT UNDER NWS
QUALITY CONTROL.  THEY ALSO DO NOT REPORT WEATHER SUCH 
AS PRECIPITATION OR FOG.  

IAZ001>003-012>014-020>022-031>034-043>046-200700-
   NORTHWEST IOWA
  
CITY           SKY/WX    TMP DP  RH WIND       PRES   REMARKS
CARROLL *      MOCLDY    39  34  81 CALM      29.94S                  
CHEROKEE *     CLEAR     39  34  81 CALM      29.92F                  
DENISON *      CLEAR     37  32  81 CALM      29.95S                  
LE MARS *      CLEAR     45  32  61 CALM      29.91S                  
SHELDON *      CLEAR     45  36  70 SE8       29.89S                  
SIOUX CITY     CLEAR     41  31  67 E7        29.92R                  
6HR MIN TEMP:  41; 6HR MAX TEMP:  64;                                

SPENCER        CLEAR     43  37  79 SE3       29.92S                  
6HR MIN TEMP:  43; 6HR MAX TEMP:  63;                                

STORM LAKE *   CLEAR     45  28  53 S8        29.90S                  
$$
 
IAZ055>058-069>071-079>083-090>094-200700-
   SOUTHWEST IOWA
  
CITY           SKY/WX    TMP DP  RH WIND       PRES   REMARKS
ATLANTIC *     CLEAR     37  32  81 CALM      29.95F                  
AUDUBON *      CLEAR     36  30  80 CALM      29.96S                  
CLARINDA *     CLEAR     34  30  86 CALM      29.99R                  
COUNCIL BLFS * PTCLDY    48  27  43 S6        29.94F                  
CRESTON *      CLEAR     45  28  53 NW3       29.97R                  
HARLAN  *      CLEAR     39  32  75 CALM      29.95S                  
LAMONI         CLEAR     46  29  51 CALM      29.96S                  
6HR MIN TEMP:  44; 6HR MAX TEMP:  60;                                

RED OAK *      CLEAR     39  30  70 CALM      29.96S                  
SHENANDOAH *   PTCLDY    39  30  70 CALM      29.96S                  
$$
 
IAZ047>049-059>061-072>074-084-200700-
   CENTRAL IOWA
  
CITY           SKY/WX    TMP DP  RH WIND       PRES   REMARKS
AMES           CLEAR     40  33  76 CALM      29.95S                  
6HR MIN TEMP:  37; 6HR MAX TEMP:  62;                                

ANKENY *       CLEAR     39  32  75 MISG      29.97S                  
BOONE *        CLEAR     45  30  57 E5        29.95S                  
CHARITON *     CLEAR     45  28  53 N3        29.95F                  
DES MOINES     CLEAR     47  30  51 CALM      29.96S                  
6HR MIN TEMP:  47; 6HR MAX TEMP:  62;                                

GRINNELL*      CLEAR     41  31  68 CALM      29.97R                  
KNOXVILLE *    CLEAR     46  30  53 CALM      29.95S                  
MARSHALLTOWN   CLEAR     41  31  67 CALM      29.95S                  
6HR MIN TEMP:  38; 6HR MAX TEMP:  60;                                

NEWTON *       CLEAR     48  30  49 NE5       29.96S                  
PELLA *        CLEAR     45  29  55 CALM      29.98R                  
PERRY *        FAIR      39  31  70 CALM      29.95F                  
$$
 
IAZ004>006-015-016-023>025-035-036-200700-
   NORTH CENTRAL IOWA
  
CITY           SKY/WX    TMP DP  RH WIND       PRES   REMARKS
ALGONA *       CLEAR     43  37  81 SE5       29.93S                  
CLARION *      PTCLDY    39  32  75 SE3       29.95S                  
ESTHERVILLE    CLEAR     39  33  79 S7        29.92S WCI  34          
6HR MIN TEMP:  39; 6HR MAX TEMP:  59;                                

FORT DODGE *   CLEAR     40  31  70 CALM      29.95S                  
MASON CITY     CLEAR     38  35  89 CALM      29.96S                  
6HR MIN TEMP:  36; 6HR MAX TEMP:  60;                                

FOREST CITY *  FAIR      37  36  93 CALM      29.94F                  
IOWA FALLS *   FAIR      41  33  71 CALM      29.97R                  
$$

IAZ007>011-017>019-026>030-037>042-050>054-066-200700-
   NORTHEAST IOWA
  
CITY           SKY/WX    TMP DP  RH WIND       PRES   REMARKS
CEDAR RAPIDS   FAIR      40  29  64 NW5       29.93S                  
6HR MIN TEMP:  39; 6HR MAX TEMP:  59;                                

CHARLES CITY * FAIR      39  32  75 NE5       29.96S                  
CLINTON *      FAIR      37  27  67 N10       29.93R WCI  30          
DECORAH *      FAIR      43  28  56 CALM      29.94S                  
DUBUQUE        FAIR      46  24  42 N6        29.94R                  
6HR MIN TEMP:  40; 6HR MAX TEMP:  58;                                

MONTICELLO *   FAIR      37  28  70 CALM      29.94S                  
OELWEIN *      FAIR      41  30  65 CALM      29.95S                  
WATERLOO       FAIR      35  29  78 CALM      29.95S                  
6HR MIN TEMP:  33; 6HR MAX TEMP:  60;                                

$$
 
IAZ064-065-067-068-078-200700-
   EAST CENTRAL IOWA
  
CITY           SKY/WX    TMP DP  RH WIND       PRES   REMARKS
DAVENPORT      FAIR      39  27  62 N7        29.94R WCI  34          
6HR MIN TEMP:  39; 6HR MAX TEMP:  59;                                

IOWA CITY      FAIR      42  30  62 N3        29.95S                  
6HR MIN TEMP:  40; 6HR MAX TEMP:  61;                                

MT. PLEASANT * CLEAR     45  30  57 N8        29.93S                  
MUSCATINE *    FAIR      46  27  46 CALM      29.94R                  
QUAD CITIES    FAIR      42  29  59 W5        29.91S                  
6HR MIN TEMP:  41; 6HR MAX TEMP:  61;                                

$$
 
IAZ062-063-075>077-085>089-095>099-200700-
   SOUTHEAST IOWA
  
CITY           SKY/WX    TMP DP  RH WIND       PRES   REMARKS
BURLINGTON     CLEAR     46  28  49 NW7       29.92R                  
6HR MIN TEMP:  43; 6HR MAX TEMP:  59;                                

FAIRFIELD *    CLEAR     37  27  65 NW9       29.93S WCI  31          
FORT MADISON * CLEAR     45  28  53 NW5       29.93R                  
KEOKUK *       CLEAR     46  27  46 N6        29.92R                  
OSKALOOSA *    FAIR      39  27  62 N8        29.96S WCI  33          
CENTERVILLE *  FAIR      43  28  56 NW5       29.97S                  
OTTUMWA        CLEAR     43  27  53 NW7       29.95S                  
6HR MIN TEMP:  41; 6HR MAX TEMP:  60;                                

WASHINGTON *   CLEAR     41  30  65 NW9       29.95R                  
$$

ABBREVIATIONS USED IN REMARKS
   TC - TEMPERATURES IN CELSIUS
  WCI - WIND CHILL INDEX
   HX - HEAT INDEX
  VSB - VISIBILITY  
$$